Location: ????????
(37.6846°N, 24.0673°E)
Time: 14:40:18
(UTC+00:00)

ERBS - Pass Details

Date: 14 July 2020
Orbit: 408 x 426 km, 57.0° (Epoch: 03 August)

Event Time Altitude Azimuth Distance (km) Brightness Sun altitude
Exits shadow 01:14:01 16° 136° (SE) 1,171 4.4 -19.2°
Maximum altitude 01:14:37 16° 122° (ESE) 1,144 4.5 -19.1°
Drops below altitude 10° 01:16:46 10° 81° (E) 1,472 5.7 -18.9°
Sets 01:19:21 0° 59° (ENE) 2,335 7.4 -18.5°
